EST,Max TemperatureF,Mean TemperatureF,Min TemperatureF,Max Dew PointF,MeanDew PointF,Min DewpointF,Max Humidity, Mean Humidity, Min Humidity, Max Sea Level PressureIn, Mean Sea Level PressureIn, Min Sea Level PressureIn, Max VisibilityMiles, Mean VisibilityMiles, Min VisibilityMiles, Max Wind SpeedMPH, Mean Wind SpeedMPH, Max Gust SpeedMPH,PrecipitationIn, CloudCover, Events, WindDirDegrees
2012-11-1,78,70,61,60,58,56,84,67,50,30.10,30.06,30.02,10,10,10,7,2,10,0.00,0,,21
2012-11-2,81,74,66,65,61,57,81,66,51,30.09,30.06,30.03,10,10,10,8,4,12,0.00,0,,314
2012-11-3,80,75,70,62,58,52,73,56,39,30.14,30.09,30.04,10,10,10,14,7,17,0.00,0,,32
2012-11-4,80,75,70,65,61,56,84,65,45,30.12,30.06,30.01,10,10,10,12,6,15,0.00,0,,57
2012-11-5,80,75,70,64,61,59,73,64,54,30.02,29.98,29.94,10,10,10,10,4,12,0.00,2,,26
2012-11-6,83,77,70,67,64,62,79,67,54,29.96,29.91,29.87,10,10,10,8,3,12,0.00,1,,345
2012-11-7,77,72,67,66,60,52,84,69,54,30.00,29.93,29.86,10,10,10,14,8,21,0.00,3,,338
2012-11-8,71,67,63,52,44,37,58,46,33,30.13,30.07,29.99,10,10,10,16,10,23,0.00,2,,15
2012-11-9,77,70,63,56,52,46,68,53,38,30.18,30.14,30.11,10,10,10,22,14,26,0.00,3,,30
2012-11-10,76,72,68,60,57,52,68,61,53,30.23,30.18,30.14,10,10,10,16,11,22,0.00,7,,40
2012-11-11,81,77,73,62,57,52,68,57,46,30.20,30.16,30.13,10,10,10,20,11,26,0.00,3,,79
2012-11-12,83,79,74,67,64,61,79,65,50,30.16,30.12,30.09,10,10,10,17,10,24,T,2,,71
2012-11-13,80,76,72,67,66,65,84,73,62,30.12,30.07,30.03,10,10,10,15,9,21,0.00,0,,41
2012-11-14,81,76,71,68,66,64,79,71,62,30.10,30.06,30.04,10,9,2,17,7,24,0.08,2,Rain,20
2012-11-15,80,76,72,67,65,62,84,71,58,30.09,30.05,30.02,10,10,8,12,7,16,0.02,1,Rain,17
2012-11-16,78,74,70,66,64,63,84,72,60,30.09,30.05,30.01,10,10,10,16,9,23,0.00,1,,21
2012-11-17,80,75,70,66,65,64,84,73,62,30.07,30.03,30.00,10,10,10,16,11,22,0.00,0,,39
2012-11-18,80,76,71,66,65,63,79,69,58,30.10,30.05,30.01,10,10,10,16,11,22,T,1,Rain,40
2012-11-19,78,72,66,64,59,56,84,65,45,30.12,30.06,30.02,10,10,10,16,11,24,0.00,2,,14
2012-11-20,69,66,63,63,59,55,84,76,68,30.07,30.01,29.96,10,10,10,14,8,22,0.00,7,,336
2012-11-21,73,69,64,60,56,49,78,64,49,30.05,30.00,29.95,10,10,10,20,10,28,0.00,1,,342
2012-11-22,72,68,63,55,47,41,63,52,40,30.13,30.07,30.03,10,10,10,18,12,29,0.00,0,,357
2012-11-23,72,67,61,58,54,45,73,58,43,30.16,30.11,30.06,10,10,10,15,9,23,0.00,0,,349
2012-11-24,73,67,61,58,52,42,84,64,44,30.14,30.08,30.04,10,10,6,14,7,22,0.00,0,,329
2012-11-25,71,64,57,61,52,45,90,65,40,30.15,30.10,30.07,10,9,6,10,5,15,0.00,1,,352
2012-11-26,81,72,63,63,60,56,84,68,52,30.17,30.13,30.10,10,10,10,10,5,15,0.00,3,,63
2012-11-27,81,76,70,66,64,62,84,71,58,30.17,30.13,30.08,10,10,10,9,5,16,T,2,,106
2012-11-28,77,73,69,66,65,63,84,77,69,30.19,30.14,30.09,10,10,10,16,5,21,0.00,0,,356
2012-11-29,78,73,67,66,64,61,84,73,62,30.19,30.14,30.12,10,10,10,17,12,24,0.01,2,Rain,38
2012-11-30,76,73,70,66,65,63,84,76,68,30.17,30.12,30.10,10,9,4,22,14,28,0.17,5,Rain,52